THOR ABLESTAR DEB, 1099

Orbit data source: Space-Track

THOR ABLESTAR DEB, 1099 is space debris in LEO originally from a launch on Sun, 13 Dec 1964 UTC launched from the Air Force Western Test Range (AFWTR). Debris objects in space refer to the collection of defunct objects orbiting the Earth. Examples of debris include non-operational satellites, rocket bodies, and fragments generated from explosions, collisions, or faulty payload assembly.

Loading next visibility...
THOR ABLESTAR DEB details
Identifier
1099, 1964-083G
Orbit
LEO
Last TLE update21 hours ago
Origin
Flag of USUSN BuWeps (US)
ManufacturerUnknown
MissionSpacecraft
Bus & MotorUnknown
MassUnknown
Launch date (UTC)
1964-12-13 (60 years ago)
Launch vehicleUnknown
Launch site
Air Force Western Test Range (AFWTR)
Object type
Payload
Rocket body
Debris
Shape & HBRUnknown
Radar Cross Section0.550 m², Medium (>0.1 m² and < 1m²)

Expand to show TLE details & history

TLE from 21 hours ago
0 THOR ABLESTAR DEB
1 01099U 64083G   24355.70616597  .00000318  00000-0  39348-3 0  9992
2 01099  89.8397 147.7302 0041462  88.9428 282.9966 13.62583103908398
Epoch: 2024-12-20T16:56Z
Definitive object data (Epoch: 2024-12-20T16:56:52.739Z)
Latitude11.42872°
Longitude163.77486°
Altitude1,021.751 km
Speed7.345 km/s
True Right ascension09h 51m 02s
True Declination11° 21' 52"
Sunlit
Object was in full shadow at TLE epoch
Visualization TLE readout
Latitude70.75084°
Longitude164.18455°
Altitude1,009.051 km
Speed7.368 km/s
Apparent Right ascension03h 23m 46s
Apparent Declination36° 06' 03"
Sunlit
Object is in full shadow
Visualization observer readout
Local Sidereal Time13:25:14
Azimuth336.123° NNW
Elevation-9.24°
Doppler factor1
Orbital elements
Apogee altitude1,054.039 km
Perigee altitude992.663 km
Semi-major axis7,401.488 km
Eccentricity0.0041462
Inclination89.8397°
RAAN147.7302°
Arg. of periapsis88.9428°
True anomaly282.53312°
Mean anomaly282.9966°
Eccentric anomaly282.76491°
Mean motion3.40851 °/min
BSTAR0.00039348
Orbital period105.62 mins
Loading maneuver chart data...

THOR ABLESTAR DEB Visibility forecast

Observer location: undefined°, undefined

Span
Click to sort rows by Start time (UTC) header in descending order
Start Az.
Max El. time (UTC)
Max El. Az.
Max El.
End time (UTC)
End Az.
10 mins2024-12-21 21:41:06.894Z25.094° NE2024-12-21 21:46:06.894Z81.459° E26.548°2024-12-21 21:51:06.894Z139.926° SSE
10 mins2024-12-21 23:27:06.894Z341.974° N2024-12-21 23:32:06.894Z272.749° WNW32.479°2024-12-21 23:37:06.894Z215.401° SW
8 mins2024-12-22 09:34:06.894Z121.283° SE2024-12-22 09:38:06.894Z72.65° E23.709°2024-12-22 09:42:06.894Z27.451° NE
10 mins2024-12-22 11:18:06.894Z204.516° SW2024-12-22 11:23:06.894Z273.96° WNW35.666°2024-12-22 11:28:06.894Z341.953° N
|